Zurück zum Katalog

METEOR 2-11 DEB

AktivPO
NORAD 43310·DEBRIS·🇷🇺 Russia

Gestartet Jul 5, 1984 von Plesetsk Cosmodrome

Loading…

Nächste Überflüge (nächste 24 Stunden)

TLE

AktuellSource: Space-Track

Epoche: Sep 12, 2026, 11:02 UTC

1 43310U 84072V   26255.45972452  .00000278  00000-0  19270-3 0  9999
2 43310  82.5467 317.4159 0017015 185.2672 174.8319 13.95673303596003

Verfolge METEOR 2-11 DEB in Echtzeit mit AllMySat

Download on the App Store